Location: Maccacari
(45.1333°N, 11.1333°E)
Time: 07:34:09
(UTC+00:00)

Cosmos 1943 - Pass Details

Date: 18 September 2020
Orbit: 833 x 850 km, 71.0° (Epoch: 29 October)

Event Time Altitude Azimuth Distance (km) Brightness Sun altitude
Rises 18:02:18 0° 334° (NNW) 3,399 6.9 -8.2°
Reaches altitude 10° 18:04:45 10° 336° (NNW) 2,464 6.1 -8.7°
Maximum altitude 18:10:25 82° 64° (ENE) 856 3.2 -9.6°
Drops below altitude 10° 18:16:05 10° 152° (SSE) 2,460 5.2 -10.6°
Sets 18:18:32 0° 154° (SSE) 3,394 6.0 -11.0°
